Time,TemperatureF,DewpointF,PressureIn,WindDirection,WindDirectionDegrees,WindSpeedMPH,WindSpeedGustMPH,Humidity,HourlyPrecipIn,Conditions,Clouds,dailyrainin,SoftwareType,DateUTC
2013-02-22 00:02:00,31.0,20.0,30.29,NNW,340,7.0,10.0,63,0.00,,,0.00,,2013-02-22 05:02:00,
2013-02-22 00:12:00,31.0,20.0,30.29,NNW,340,7.0,10.0,63,0.00,,,0.00,,2013-02-22 05:12:00,
2013-02-22 00:22:00,30.0,19.0,30.30,NNW,337,7.0,13.0,64,0.00,,,0.00,,2013-02-22 05:22:00,
2013-02-22 00:32:00,30.0,19.0,30.30,NNW,337,7.0,13.0,64,0.00,,,0.00,,2013-02-22 05:32:00,
2013-02-22 00:42:00,30.0,19.0,30.30,NNW,337,7.0,13.0,64,0.00,,,0.00,,2013-02-22 05:42:00,
2013-02-22 00:52:00,30.0,20.0,30.29,North,357,9.0,14.0,65,0.00,,,0.00,,2013-02-22 05:52:00,
2013-02-22 01:01:00,30.0,20.0,30.29,North,357,9.0,14.0,65,0.00,,,0.00,,2013-02-22 06:01:00,
2013-02-22 01:12:00,30.0,20.0,30.29,North,357,9.0,14.0,65,0.00,,,0.00,,2013-02-22 06:12:00,
2013-02-22 01:22:00,29.0,19.0,30.29,NNW,331,4.0,14.0,67,0.00,,,0.00,,2013-02-22 06:22:00,
2013-02-22 01:32:00,29.0,19.0,30.29,NNW,331,4.0,14.0,67,0.00,,,0.00,,2013-02-22 06:32:00,
2013-02-22 01:42:00,29.0,19.0,30.29,NNW,331,4.0,14.0,67,0.00,,,0.00,,2013-02-22 06:42:00,
2013-02-22 01:52:00,28.0,19.0,30.30,North,9,6.0,12.0,68,0.00,,,0.00,,2013-02-22 06:52:00,
2013-02-22 02:01:00,28.0,19.0,30.30,North,9,6.0,12.0,68,0.00,,,0.00,,2013-02-22 07:01:00,
2013-02-22 02:11:00,28.0,19.0,30.30,North,9,6.0,12.0,68,0.00,,,0.00,,2013-02-22 07:11:00,
2013-02-22 02:22:00,28.0,19.0,30.32,NNE,26,6.0,10.0,69,0.00,,,0.00,,2013-02-22 07:22:00,
2013-02-22 02:32:00,28.0,19.0,30.32,NNE,26,6.0,10.0,69,0.00,,,0.00,,2013-02-22 07:32:00,
2013-02-22 02:42:00,28.0,19.0,30.32,NNE,26,6.0,10.0,69,0.00,,,0.00,,2013-02-22 07:42:00,
2013-02-22 02:52:00,28.0,20.0,30.31,North,1,3.0,12.0,70,0.00,,,0.00,,2013-02-22 07:52:00,
2013-02-22 03:01:00,28.0,20.0,30.31,North,1,3.0,12.0,70,0.00,,,0.00,,2013-02-22 08:01:00,
2013-02-22 03:11:00,28.0,20.0,30.31,North,1,3.0,12.0,70,0.00,,,0.00,,2013-02-22 08:11:00,
2013-02-22 03:21:00,27.0,19.0,30.30,NNW,346,6.0,11.0,70,0.00,,,0.00,,2013-02-22 08:21:00,
2013-02-22 03:32:00,27.0,19.0,30.30,NNW,346,6.0,11.0,70,0.00,,,0.00,,2013-02-22 08:32:00,
2013-02-22 03:42:00,27.0,19.0,30.30,NNW,346,6.0,11.0,70,0.00,,,0.00,,2013-02-22 08:42:00,
2013-02-22 03:52:00,27.0,19.0,30.32,NW,322,8.0,14.0,71,0.00,,,0.00,,2013-02-22 08:52:00,
2013-02-22 04:03:00,27.0,19.0,30.32,NW,322,8.0,14.0,71,0.00,,,0.00,,2013-02-22 09:03:00,
2013-02-22 04:11:00,27.0,19.0,30.33,NE,36,9.0,16.0,71,0.00,,,0.00,,2013-02-22 09:11:00,
2013-02-22 04:22:00,27.0,19.0,30.33,NE,36,9.0,16.0,71,0.00,,,0.00,,2013-02-22 09:22:00,
2013-02-22 04:32:00,27.0,19.0,30.33,NE,36,9.0,16.0,71,0.00,,,0.00,,2013-02-22 09:32:00,
2013-02-22 04:42:00,27.0,19.0,30.33,NE,36,9.0,16.0,71,0.00,,,0.00,,2013-02-22 09:42:00,
2013-02-22 04:52:00,27.0,19.0,30.34,NNW,341,9.0,16.0,71,0.00,,,0.00,,2013-02-22 09:52:00,
2013-02-22 05:01:00,27.0,19.0,30.34,NNW,341,9.0,16.0,71,0.00,,,0.00,,2013-02-22 10:01:00,
2013-02-22 05:11:00,27.0,19.0,30.34,NNW,341,9.0,16.0,71,0.00,,,0.00,,2013-02-22 10:11:00,
2013-02-22 05:21:00,27.0,19.0,30.36,NNE,32,8.0,15.0,71,0.00,,,0.00,,2013-02-22 10:21:00,
2013-02-22 05:32:00,27.0,19.0,30.36,NNE,32,8.0,15.0,71,0.00,,,0.00,,2013-02-22 10:32:00,
2013-02-22 05:42:00,27.0,19.0,30.36,NNE,32,8.0,15.0,71,0.00,,,0.00,,2013-02-22 10:42:00,
2013-02-22 05:52:00,27.0,19.0,30.37,North,356,7.0,14.0,72,0.00,,,0.00,,2013-02-22 10:52:00,
2013-02-22 06:01:00,27.0,19.0,30.37,North,356,7.0,14.0,72,0.00,,,0.00,,2013-02-22 11:01:00,
2013-02-22 06:11:00,27.0,19.0,30.37,North,356,7.0,14.0,72,0.00,,,0.00,,2013-02-22 11:11:00,
2013-02-22 06:22:00,27.0,19.0,30.38,North,356,8.0,13.0,72,0.00,,,0.00,,2013-02-22 11:22:00,
2013-02-22 06:32:00,27.0,19.0,30.38,North,356,8.0,13.0,72,0.00,,,0.00,,2013-02-22 11:32:00,
2013-02-22 06:42:00,27.0,19.0,30.38,North,356,8.0,13.0,72,0.00,,,0.00,,2013-02-22 11:42:00,
2013-02-22 06:52:00,27.0,20.0,30.36,NNE,25,2.0,13.0,74,0.00,,,0.00,,2013-02-22 11:52:00,
2013-02-22 07:02:00,27.0,20.0,30.36,NNE,25,2.0,13.0,74,0.00,,,0.00,,2013-02-22 12:02:00,
2013-02-22 07:11:00,27.0,20.0,30.36,NNE,25,2.0,13.0,74,0.00,,,0.00,,2013-02-22 12:11:00,
2013-02-22 07:22:00,27.0,20.0,30.40,NNW,340,3.0,9.0,74,0.00,,,0.00,,2013-02-22 12:22:00,
2013-02-22 07:32:00,27.0,20.0,30.40,NNW,340,3.0,9.0,74,0.00,,,0.00,,2013-02-22 12:32:00,
2013-02-22 07:42:00,27.0,20.0,30.40,NNW,340,3.0,9.0,74,0.00,,,0.00,,2013-02-22 12:42:00,
2013-02-22 07:52:00,27.0,20.0,30.38,NNW,343,1.0,9.0,73,0.00,,,0.00,,2013-02-22 12:52:00,
2013-02-22 08:02:00,27.0,20.0,30.38,NNW,343,1.0,9.0,73,0.00,,,0.00,,2013-02-22 13:02:00,
2013-02-22 08:11:00,27.0,20.0,30.38,NNW,343,1.0,9.0,73,0.00,,,0.00,,2013-02-22 13:11:00,
2013-02-22 08:22:00,28.0,20.0,30.40,NNE,27,5.0,8.0,73,0.00,,,0.00,,2013-02-22 13:22:00,
2013-02-22 08:32:00,28.0,20.0,30.40,NNE,27,5.0,8.0,73,0.00,,,0.00,,2013-02-22 13:32:00,
2013-02-22 08:42:00,28.0,20.0,30.40,NNE,27,5.0,8.0,73,0.00,,,0.00,,2013-02-22 13:42:00,
2013-02-22 08:52:00,29.0,21.0,30.41,North,356,6.0,8.0,73,0.00,,,0.00,,2013-02-22 13:52:00,
2013-02-22 09:01:00,29.0,21.0,30.41,North,356,6.0,8.0,73,0.00,,,0.00,,2013-02-22 14:01:00,
2013-02-22 09:11:00,30.0,22.0,30.40,East,79,4.0,9.0,71,0.00,,,0.00,,2013-02-22 14:11:00,
2013-02-22 09:21:00,30.0,22.0,30.40,East,79,4.0,9.0,71,0.00,,,0.00,,2013-02-22 14:21:00,
2013-02-22 09:32:00,30.0,22.0,30.40,East,79,4.0,9.0,71,0.00,,,0.00,,2013-02-22 14:32:00,
2013-02-22 09:42:00,30.0,22.0,30.40,East,79,4.0,9.0,71,0.00,,,0.00,,2013-02-22 14:42:00,
2013-02-22 09:53:00,31.0,23.0,30.39,NNE,32,3.0,11.0,72,0.00,,,0.00,,2013-02-22 14:53:00,
2013-02-22 10:01:00,31.0,23.0,30.39,NNE,32,3.0,11.0,72,0.00,,,0.00,,2013-02-22 15:01:00,
2013-02-22 10:12:00,31.0,23.0,30.39,NNE,32,3.0,11.0,72,0.00,,,0.00,,2013-02-22 15:12:00,
2013-02-22 10:22:00,32.0,24.0,30.39,NE,47,5.0,11.0,73,0.00,,,0.00,,2013-02-22 15:22:00,
2013-02-22 10:32:00,32.0,24.0,30.39,NE,47,5.0,11.0,73,0.00,,,0.00,,2013-02-22 15:32:00,
2013-02-22 10:42:00,32.0,24.0,30.39,NE,47,5.0,11.0,73,0.00,,,0.00,,2013-02-22 15:42:00,
2013-02-22 10:52:00,33.0,26.0,30.38,ENE,58,8.0,10.0,76,0.00,,,0.00,,2013-02-22 15:52:00,
2013-02-22 11:02:00,33.0,26.0,30.38,ENE,58,8.0,10.0,76,0.00,,,0.00,,2013-02-22 16:02:00,
2013-02-22 11:12:00,33.0,26.0,30.38,ENE,58,8.0,10.0,76,0.00,,,0.00,,2013-02-22 16:12:00,
2013-02-22 11:22:00,34.0,28.0,30.37,NE,47,2.0,11.0,78,0.00,,,0.00,,2013-02-22 16:22:00,
2013-02-22 11:32:00,34.0,28.0,30.37,NE,47,2.0,11.0,78,0.00,,,0.00,,2013-02-22 16:32:00,
2013-02-22 11:42:00,34.0,28.0,30.37,NE,47,2.0,11.0,78,0.00,,,0.00,,2013-02-22 16:42:00,
2013-02-22 11:52:00,34.0,28.0,30.37,NE,50,8.0,11.0,79,0.00,,,0.00,,2013-02-22 16:52:00,
2013-02-22 12:01:00,34.0,28.0,30.37,NE,50,8.0,11.0,79,0.00,,,0.00,,2013-02-22 17:01:00,
2013-02-22 12:11:00,34.0,28.0,30.37,NE,50,8.0,11.0,79,0.00,,,0.00,,2013-02-22 17:11:00,
2013-02-22 12:22:00,35.0,29.0,30.36,North,11,9.0,13.0,80,0.00,,,0.00,,2013-02-22 17:22:00,
2013-02-22 12:32:00,35.0,29.0,30.36,North,11,9.0,13.0,80,0.00,,,0.00,,2013-02-22 17:32:00,
2013-02-22 12:42:00,35.0,29.0,30.36,North,11,9.0,13.0,80,0.00,,,0.00,,2013-02-22 17:42:00,
2013-02-22 12:52:00,36.0,30.0,30.35,NE,43,7.0,13.0,80,0.00,,,0.00,,2013-02-22 17:52:00,
2013-02-22 13:02:00,36.0,30.0,30.35,NE,43,7.0,13.0,80,0.00,,,0.00,,2013-02-22 18:02:00,
2013-02-22 13:12:00,36.0,30.0,30.35,NE,43,7.0,13.0,80,0.00,,,0.00,,2013-02-22 18:12:00,
2013-02-22 13:22:00,36.0,31.0,30.33,East,82,9.0,14.0,81,0.00,,,0.00,,2013-02-22 18:22:00,
2013-02-22 13:32:00,36.0,31.0,30.33,East,82,9.0,14.0,81,0.00,,,0.00,,2013-02-22 18:32:00,
2013-02-22 13:42:00,36.0,31.0,30.33,East,82,9.0,14.0,81,0.00,,,0.00,,2013-02-22 18:42:00,
2013-02-22 13:52:00,36.0,31.0,30.33,East,82,9.0,14.0,81,0.00,,,0.00,,2013-02-22 18:52:00,
2013-02-22 14:01:00,36.0,31.0,30.33,East,82,9.0,14.0,81,0.00,,,0.00,,2013-02-22 19:01:00,
2013-02-22 14:11:00,37.0,32.0,30.32,NNE,33,7.0,17.0,82,0.00,,,0.00,,2013-02-22 19:11:00,
2013-02-22 14:21:00,37.0,32.0,30.32,NNE,33,7.0,17.0,82,0.00,,,0.00,,2013-02-22 19:21:00,
2013-02-22 14:31:00,37.0,32.0,30.32,NNE,33,7.0,17.0,82,0.00,,,0.00,,2013-02-22 19:31:00,
2013-02-22 14:42:00,37.0,32.0,30.32,NNE,33,7.0,17.0,82,0.00,,,0.00,,2013-02-22 19:42:00,
2013-02-22 14:52:00,38.0,33.0,30.31,ENE,65,3.0,15.0,81,0.00,,,0.00,,2013-02-22 19:52:00,
2013-02-22 15:01:00,38.0,33.0,30.31,ENE,65,3.0,15.0,81,0.00,,,0.00,,2013-02-22 20:01:00,
2013-02-22 15:11:00,38.0,33.0,30.31,ENE,65,3.0,15.0,81,0.00,,,0.00,,2013-02-22 20:11:00,
2013-02-22 15:21:00,37.0,32.0,30.31,ENE,70,1.0,12.0,83,0.00,,,0.00,,2013-02-22 20:21:00,
2013-02-22 15:32:00,37.0,32.0,30.31,ENE,70,1.0,12.0,83,0.00,,,0.00,,2013-02-22 20:32:00,
2013-02-22 15:42:00,37.0,32.0,30.31,ENE,70,1.0,12.0,83,0.00,,,0.00,,2013-02-22 20:42:00,
2013-02-22 15:52:00,38.0,33.0,30.32,East,80,4.0,9.0,82,0.00,,,0.00,,2013-02-22 20:52:00,
2013-02-22 16:01:00,38.0,33.0,30.32,East,80,4.0,9.0,82,0.00,,,0.00,,2013-02-22 21:01:00,
2013-02-22 16:11:00,38.0,33.0,30.32,East,80,4.0,9.0,82,0.00,,,0.00,,2013-02-22 21:11:00,
2013-02-22 16:21:00,38.0,33.0,30.32,North,5,2.0,9.0,81,0.00,,,0.00,,2013-02-22 21:21:00,
2013-02-22 16:32:00,38.0,33.0,30.32,North,5,2.0,9.0,81,0.00,,,0.00,,2013-02-22 21:32:00,
2013-02-22 16:42:00,38.0,33.0,30.32,North,5,2.0,9.0,81,0.00,,,0.00,,2013-02-22 21:42:00,
2013-02-22 16:52:00,38.0,33.0,30.31,East,86,7.0,8.0,82,0.00,,,0.00,,2013-02-22 21:52:00,
2013-02-22 17:01:00,38.0,33.0,30.31,East,86,7.0,8.0,82,0.00,,,0.00,,2013-02-22 22:01:00,
2013-02-22 17:11:00,38.0,33.0,30.31,East,86,7.0,8.0,82,0.00,,,0.00,,2013-02-22 22:11:00,
2013-02-22 17:21:00,38.0,33.0,30.31,NE,39,5.0,9.0,83,0.00,,,0.00,,2013-02-22 22:21:00,
2013-02-22 17:32:00,38.0,33.0,30.31,NE,39,5.0,9.0,83,0.00,,,0.00,,2013-02-22 22:32:00,
2013-02-22 17:42:00,38.0,33.0,30.31,NE,39,5.0,9.0,83,0.00,,,0.00,,2013-02-22 22:42:00,
2013-02-22 17:52:00,38.0,34.0,30.32,ENE,75,3.0,9.0,85,0.00,,,0.00,,2013-02-22 22:52:00,
2013-02-22 18:01:00,38.0,34.0,30.32,ENE,75,3.0,9.0,85,0.00,,,0.00,,2013-02-22 23:01:00,
2013-02-22 18:11:00,38.0,34.0,30.32,ENE,75,3.0,9.0,85,0.00,,,0.00,,2013-02-22 23:11:00,
2013-02-22 18:21:00,38.0,34.0,30.31,ENE,57,0.0,9.0,85,0.00,,,0.00,,2013-02-22 23:21:00,
2013-02-22 18:32:00,38.0,34.0,30.31,ENE,57,0.0,9.0,85,0.00,,,0.00,,2013-02-22 23:32:00,
2013-02-22 18:42:00,38.0,34.0,30.31,ENE,57,0.0,9.0,85,0.00,,,0.00,,2013-02-22 23:42:00,
2013-02-22 18:52:00,38.0,34.0,30.32,ENE,59,1.0,6.0,85,0.00,,,0.00,,2013-02-22 23:52:00,
2013-02-22 19:02:00,38.0,34.0,30.32,ENE,59,1.0,6.0,85,0.00,,,0.00,,2013-02-23 00:02:00,
2013-02-22 19:11:00,38.0,34.0,30.32,ENE,59,1.0,6.0,85,0.00,,,0.00,,2013-02-23 00:11:00,
2013-02-22 19:21:00,38.0,34.0,30.32,NE,52,7.0,7.0,86,0.00,,,0.00,,2013-02-23 00:21:00,
2013-02-22 19:32:00,38.0,34.0,30.32,NE,52,7.0,7.0,86,0.00,,,0.00,,2013-02-23 00:32:00,
2013-02-22 19:42:00,38.0,34.0,30.32,NE,52,7.0,7.0,86,0.00,,,0.00,,2013-02-23 00:42:00,
2013-02-22 19:52:00,38.0,34.0,30.32,North,1,1.0,8.0,87,0.00,,,0.00,,2013-02-23 00:52:00,
2013-02-22 20:01:00,38.0,34.0,30.32,North,1,1.0,8.0,87,0.00,,,0.00,,2013-02-23 01:01:00,
2013-02-22 20:11:00,38.0,34.0,30.32,North,1,1.0,8.0,87,0.00,,,0.00,,2013-02-23 01:11:00,
2013-02-22 20:21:00,38.0,35.0,30.31,NE,54,2.0,8.0,89,0.00,,,0.00,,2013-02-23 01:21:00,
2013-02-22 20:32:00,38.0,35.0,30.31,NE,54,2.0,8.0,89,0.00,,,0.00,,2013-02-23 01:32:00,
2013-02-22 20:42:00,38.0,35.0,30.31,NE,54,2.0,8.0,89,0.00,,,0.00,,2013-02-23 01:42:00,
2013-02-22 20:52:00,38.0,36.0,30.31,NE,36,1.0,7.0,91,0.00,,,0.00,,2013-02-23 01:52:00,
2013-02-22 21:01:00,38.0,36.0,30.31,NE,36,1.0,7.0,91,0.00,,,0.00,,2013-02-23 02:01:00,
2013-02-22 21:11:00,36.0,34.0,30.29,NE,43,3.0,4.0,92,0.00,,,0.00,,2013-02-23 02:11:00,
2013-02-22 21:21:00,36.0,34.0,30.29,NE,43,3.0,4.0,92,0.00,,,0.00,,2013-02-23 02:21:00,
2013-02-22 21:32:00,36.0,34.0,30.29,NE,43,3.0,4.0,92,0.00,,,0.00,,2013-02-23 02:32:00,
2013-02-22 21:42:00,36.0,34.0,30.29,NE,43,3.0,4.0,92,0.00,,,0.00,,2013-02-23 02:42:00,
2013-02-22 21:52:00,36.0,34.0,30.30,NE,56,0.0,4.0,92,0.01,,,0.01,,2013-02-23 02:52:00,
2013-02-22 22:02:00,36.0,34.0,30.30,NE,56,0.0,4.0,92,0.01,,,0.01,,2013-02-23 03:02:00,
2013-02-22 22:11:00,36.0,34.0,30.30,NE,56,0.0,4.0,92,0.01,,,0.01,,2013-02-23 03:11:00,
2013-02-22 22:21:00,36.0,34.0,30.29,North,359,1.0,4.0,93,0.02,,,0.02,,2013-02-23 03:21:00,
2013-02-22 22:32:00,36.0,34.0,30.29,North,359,1.0,4.0,93,0.02,,,0.02,,2013-02-23 03:32:00,
2013-02-22 22:42:00,36.0,34.0,30.29,North,359,1.0,4.0,93,0.02,,,0.02,,2013-02-23 03:42:00,
2013-02-22 22:52:00,36.0,34.0,30.27,North,359,3.0,6.0,94,0.01,,,0.02,,2013-02-23 03:52:00,
2013-02-22 23:01:00,36.0,34.0,30.27,North,359,3.0,6.0,94,0.01,,,0.02,,2013-02-23 04:01:00,
2013-02-22 23:11:00,36.0,34.0,30.27,North,359,3.0,6.0,94,0.01,,,0.02,,2013-02-23 04:11:00,
2013-02-22 23:21:00,36.0,34.0,30.27,North,359,3.0,6.0,94,0.01,,,0.02,,2013-02-23 04:21:00,
2013-02-22 23:52:00,37.0,36.0,30.25,NNE,27,4.0,7.0,95,0.02,,,0.04,,2013-02-23 04:52:00,